Dennison, MN

2:35 PM CST on February 24, 2017 (GMT -0600)
Stanton

Weather History for KSYN - February, 2014

Change the Weather History Date:

Tuesday, February 4, 2014

  Actual Average (KLVN) Record (KLVN)
Temperature  
Mean Temperature -1 °F -  
Max Temperature 11 °F 21 °F 53 °F (2005)
Min Temperature -13 °F 4 °F -23 °F (1982)
Degree Days  
Heating Degree Days 66    
Moisture  
Dew Point -7 °F    
Average Humidity 71    
Maximum Humidity 82    
Minimum Humidity 61    
Precipitation  
Precipitation 0.00 in - - ()
Sea Level Pressure  
Sea Level Pressure 30.39 in    
Wind  
Wind Speed 4 mph (NNW)    
Max Wind Speed 16 mph    
Max Gust Speed -    
Visibility 10 miles    
Events      
Averages and records for this station are not official NWS values.
T = Trace of Precipitation, MM = Missing Value Source: NWS Daily Summary

Daily Weather History Graph

Daily Weather History Graph

Search for Another Location

Airport or City:

Trip Planner

Search our weather history database for the weather conditions in past years. The results will help you decide how hot, cold, wet, or windy it might be!

Date:

Astronomy

Feb. 04, 2014 Rise Set
Actual Time 7:27 AM CST 5:25 PM CST
Civil Twilight 6:56 AM CST 5:56 PM CST
Nautical Twilight 6:21 AM CST 6:30 PM CST
Astronomical Twilight 5:47 AM CST 7:04 PM CST
Moon 9:50 AM CST (2/4) 11:36 PM CST (2/4)
Length of Visible Light 11h 00m
Length of Day
9h 58m
Waxing Crescent, 29% of the Moon is Illuminated
Feb 4
Waxing Crescent
Feb 6
First Quarter
Feb 14
Full
Feb 22
Last Quarter
Mar 1
New

Hourly Weather History & Observations

Time (CST) Temp. Windchill Dew Point Humidity Pressure Visibility Wind Dir Wind Speed Gust Speed Precip Events Conditions
12:12 AM -5.1 °F - -9.9 °F 80% 30.35 in 10.0 mi Calm Calm - N/A   Scattered Clouds
12:32 AM -5.4 °F - -10.7 °F 78% 30.35 in 10.0 mi Calm Calm - N/A   Scattered Clouds
12:52 AM -6.7 °F - -11.9 °F 78% 30.35 in 10.0 mi Calm Calm - N/A   Mostly Cloudy
1:12 AM -7.8 °F -22.3 °F -13.5 °F 76% 30.35 in 10.0 mi SSW 6.9 mph - N/A   Scattered Clouds
1:32 AM -7.2 °F -18.3 °F -12.6 °F 77% 30.35 in 10.0 mi South 4.6 mph - N/A   Scattered Clouds
1:52 AM -7.2 °F -18.3 °F -13.0 °F 76% 30.36 in 10.0 mi SSW 4.6 mph - N/A   Mostly Cloudy
2:12 AM -6.7 °F -15.5 °F -11.9 °F 78% 30.36 in 10.0 mi SW 3.5 mph - N/A   Scattered Clouds
2:31 AM -7.6 °F - -13.2 °F 77% 30.37 in 10.0 mi Calm Calm - N/A   Scattered Clouds
2:52 AM -5.8 °F -14.5 °F -10.8 °F 79% 30.37 in 10.0 mi SSW 3.5 mph - N/A   Clear
3:12 AM -9.6 °F - -15.3 °F 76% 30.38 in 10.0 mi Calm Calm - N/A   Clear
3:32 AM -11.6 °F - -17.5 °F 75% 30.37 in 10.0 mi Calm Calm - N/A   Clear
3:52 AM -8.0 °F - -13.9 °F 75% 30.38 in 10.0 mi Calm Calm - N/A   Clear
4:11 AM -8.7 °F - -14.1 °F 77% 30.37 in 10.0 mi Calm Calm - N/A   Clear
4:32 AM -9.0 °F - -14.4 °F 77% 30.37 in 10.0 mi Calm Calm - N/A   Clear
4:52 AM -9.8 °F -19.0 °F -15.5 °F 76% 30.38 in 10.0 mi South 3.5 mph - N/A   Clear
5:11 AM -11.9 °F -23.8 °F -18.2 °F 74% 30.39 in 10.0 mi South 4.6 mph - N/A   Scattered Clouds
5:32 AM -7.4 °F -16.3 °F -13.2 °F 76% 30.39 in 10.0 mi South 3.5 mph - N/A   Clear
5:52 AM -10.8 °F -20.2 °F -17.0 °F 74% 30.39 in 10.0 mi SSW 3.5 mph - N/A   Clear
6:12 AM -9.6 °F -18.8 °F -15.2 °F 76% 30.40 in 10.0 mi SSW 3.5 mph - N/A   Clear
6:32 AM -11.6 °F - -17.3 °F 76% 30.40 in 10.0 mi Calm Calm - N/A   Clear
6:52 AM -11.9 °F - -18.0 °F 74% 30.40 in 10.0 mi Calm Calm - N/A   Clear
7:12 AM -11.0 °F - -17.1 °F 74% 30.41 in 10.0 mi Calm Calm - N/A   Clear
7:32 AM -13.4 °F -23.1 °F -19.5 °F 74% 30.42 in 10.0 mi SSW 3.5 mph - N/A   Clear
7:52 AM -12.5 °F -22.1 °F -18.4 °F 75% 30.42 in 10.0 mi South 3.5 mph - N/A   Clear
8:12 AM -11.4 °F - -17.5 °F 74% 30.41 in 10.0 mi Calm Calm - N/A   Clear
8:32 AM -10.1 °F - -16.1 °F 75% 30.42 in 10.0 mi Calm Calm - N/A   Clear
8:52 AM -8.9 °F - -14.4 °F 77% 30.43 in 10.0 mi Calm Calm - N/A   Clear
9:12 AM -6.0 °F -14.7 °F -11.2 °F 78% 30.43 in 7.0 mi SSW 3.5 mph - N/A   Clear
9:32 AM -5.6 °F - -10.8 °F 78% 30.43 in 10.0 mi Calm Calm - N/A   Mostly Cloudy
9:52 AM -3.8 °F - -8.7 °F 80% 30.44 in 5.0 mi Calm Calm - N/A   Haze
10:12 AM -0.8 °F - -5.3 °F 81% 30.43 in 7.0 mi Calm Calm - N/A   Overcast
10:32 AM 2.1 °F - -2.2 °F 82% 30.43 in 7.0 mi Calm Calm - N/A   Overcast
10:52 AM 3.9 °F - -0.6 °F 82% 30.43 in 7.0 mi Calm Calm - N/A   Mostly Cloudy
11:12 AM 4.1 °F -5.1 °F -0.4 °F 82% 30.43 in 7.0 mi NNE 4.6 mph - N/A   Overcast
11:32 AM 6.6 °F -6.1 °F 2.3 °F 82% 30.42 in 10.0 mi NNE 8.1 mph - N/A   Scattered Clouds
11:52 AM 7.9 °F -0.7 °F 2.5 °F 79% 30.42 in 10.0 mi NE 4.6 mph - N/A   Clear
12:12 PM 9.0 °F -0.9 °F 1.6 °F 72% 30.42 in 10.0 mi NNE 5.8 mph - N/A   Clear
12:32 PM 9.5 °F -1.5 °F 1.8 °F 71% 30.41 in 10.0 mi NNE 6.9 mph - N/A   Scattered Clouds
12:52 PM 10.0 °F -1.9 °F 2.1 °F 70% 30.40 in 10.0 mi North 8.1 mph - N/A   Scattered Clouds
1:12 PM 10.4 °F -0.4 °F 2.1 °F 69% 30.38 in 10.0 mi North 6.9 mph - N/A   Clear
1:32 PM 10.9 °F -1.8 °F 2.1 °F 68% 30.37 in 10.0 mi North 9.2 mph - N/A   Clear
1:52 PM 11.3 °F -0.4 °F 2.3 °F 67% 30.37 in 10.0 mi North 8.1 mph - N/A   Clear
2:12 PM 11.7 °F 2.3 °F 2.1 °F 66% 30.37 in 10.0 mi North 5.8 mph - N/A   Clear
2:32 PM 11.7 °F 0.0 °F 1.9 °F 65% 30.38 in 10.0 mi NNW 8.1 mph - N/A   Clear
2:52 PM 11.7 °F 0.0 °F 1.8 °F 65% 30.37 in 10.0 mi NNW 8.1 mph - N/A   Clear
3:12 PM 11.7 °F 1.1 °F 1.4 °F 63% 30.38 in 10.0 mi North 6.9 mph - N/A   Clear
3:31 PM 11.3 °F -1.3 °F 1.4 °F 64% 30.38 in 10.0 mi NNW 9.2 mph - N/A   Clear
3:52 PM 10.9 °F -2.6 °F 1.0 °F 64% 30.38 in 10.0 mi NNW 10.4 mph - N/A   Clear
4:12 PM 10.4 °F -2.4 °F 0.5 °F 64% 30.38 in 10.0 mi North 9.2 mph - N/A   Clear
4:32 PM 9.9 °F -2.2 °F -0.0 °F 64% 30.38 in 10.0 mi North 8.1 mph - N/A   Clear
4:52 PM 9.3 °F -2.8 °F -0.8 °F 64% 30.38 in 10.0 mi North 8.1 mph - N/A   Clear
5:12 PM 8.1 °F -4.3 °F -1.3 °F 66% 30.38 in 10.0 mi North 8.1 mph - N/A   Clear
5:32 PM 7.5 °F -5.0 °F -1.5 °F 67% 30.38 in 10.0 mi North 8.1 mph - N/A   Clear
5:52 PM 7.0 °F -6.6 °F -2.6 °F 65% 30.38 in 10.0 mi North 9.2 mph - N/A   Clear
6:12 PM 7.0 °F -7.5 °F -3.6 °F 62% 30.38 in 10.0 mi North 10.4 mph - N/A   Clear
6:32 PM 6.4 °F -7.3 °F -4.0 °F 62% 30.38 in 10.0 mi North 9.2 mph - N/A   Clear
6:52 PM 5.5 °F -7.4 °F -4.2 °F 64% 30.38 in 10.0 mi North 8.1 mph - N/A   Clear
7:12 PM 5.2 °F -7.9 °F -4.4 °F 65% 30.38 in 10.0 mi North 8.1 mph - N/A   Clear
7:32 PM 5.0 °F -6.9 °F -4.9 °F 64% 30.39 in 10.0 mi NNW 6.9 mph - N/A   Clear
7:52 PM 5.0 °F -8.1 °F -5.1 °F 63% 30.39 in 10.0 mi NNW 8.1 mph - N/A   Scattered Clouds
8:12 PM 5.7 °F -7.2 °F -4.9 °F 62% 30.39 in 10.0 mi NNW 8.1 mph - N/A   Overcast
8:32 PM 6.4 °F -7.3 °F -4.2 °F 62% 30.39 in 10.0 mi NNW 9.2 mph - N/A   Overcast
8:51 PM 6.6 °F -8.0 °F -4.0 °F 62% 30.38 in 10.0 mi NNW 10.4 mph - N/A   Overcast
9:12 PM 6.8 °F -7.8 °F -4.0 °F 61% 30.38 in 10.0 mi NNW 10.4 mph - N/A   Overcast
9:32 PM 6.6 °F -8.8 °F -4.0 °F 62% 30.38 in 10.0 mi North 11.5 mph - N/A   Overcast
9:51 PM 6.3 °F -8.4 °F -4.0 °F 63% 30.38 in 10.0 mi NNW 10.4 mph - N/A   Overcast
10:12 PM 5.5 °F -10.2 °F -4.5 °F 63% 30.39 in 10.0 mi North 11.5 mph - N/A   Mostly Cloudy
10:32 PM 5.4 °F -10.4 °F -4.9 °F 63% 30.39 in 10.0 mi North 11.5 mph - N/A   Mostly Cloudy
10:52 PM 5.0 °F -10.0 °F -4.9 °F 64% 30.40 in 10.0 mi North 10.4 mph - N/A   Overcast
11:12 PM 5.0 °F -13.6 °F -5.3 °F 63% 30.39 in 10.0 mi North 16.1 mph - N/A   Mostly Cloudy
11:32 PM 4.8 °F -13.8 °F -5.4 °F 63% 30.40 in 10.0 mi North 16.1 mph - N/A   Mostly Cloudy
11:52 PM 4.1 °F -14.1 °F -5.8 °F 64% 30.40 in 10.0 mi North 15.0 mph - N/A   Overcast